����,���ϕ���(m/s),���ϕ���,�ő�u�ԕ���(m/s),�ő啗��������,�C��(��),���x(%),10���Ԉړ��ώZ�J��(mm),1���Ԉړ��ώZ�J��(mm),���J��(mm),�݌v�J��(mm),����(���ώZ)(MJ/m2),����(���ώZ)(min),���n�C��(hPa),�C�ʋC��(hPa)
2024-01-15T00:00:00+09:00,2.8,��쐼,5.6,��,4.1,73.8,0,0,0,0,14.32,499,1004.4,1018.8
2024-01-15T00:01:00+09:00,3,��쐼,5.6,��,4.1,74.1,0,0,0,0,0,0,1004.4,1018.8
2024-01-15T00:02:00+09:00,3.1,��쐼,5.9,��,4.1,74,0,0,0,0,0,0,1004.5,1018.9
2024-01-15T00:03:00+09:00,3.4,��쐼,6.1,�쐼,4.1,73.5,0,0,0,0,0,0,1004.4,1018.8
2024-01-15T00:04:00+09:00,3.4,��쐼,6.1,�쐼,4.1,73,0,0,0,0,0,0,1004.5,1018.9
2024-01-15T00:05:00+09:00,3.5,��쐼,6.1,�쐼,4,73.9,0,0,0,0,0,0,1004.4,1018.8
2024-01-15T00:06:00+09:00,3.4,��쐼,6.1,�쐼,4.1,73.9,0,0,0,0,0,0,1004.5,1018.9
2024-01-15T00:07:00+09:00,3.3,��쐼,6.1,�쐼,4.1,73.9,0,0,0,0,0,0,1004.4,1018.8
2024-01-15T00:08:00+09:00,3.2,��쐼,6.1,�쐼,4.1,74,0,0,0,0,0,0,1004.4,1018.8
2024-01-15T00:09:00+09:00,3.1,��쐼,6.1,�쐼,4.1,74.4,0,0,0,0,0,0,1004.4,1018.8
2024-01-15T00:10:00+09:00,3.1,��쐼,6.1,�쐼,4.1,74.3,0,0,0,0,0,0,1004.3,1018.7
2024-01-15T00:11:00+09:00,3,��쐼,6.1,�쐼,4.2,74.3,0,0,0,0,0,0,1004.4,1018.8
2024-01-15T00:12:00+09:00,3,��쐼,6.1,�쐼,4.1,74.5,0,0,0,0,0,0,1004.4,1018.8
2024-01-15T00:13:00+09:00,2.7,��쐼,5.6,��,3.8,75,0,0,0,0,0,0,1004.4,1018.8
2024-01-15T00:14:00+09:00,2.6,��쐼,4.3,��쐼,3.9,75.5,0,0,0,0,0,0,1004.4,1018.8
2024-01-15T00:15:00+09:00,2.4,��쐼,4.3,��쐼,4.2,75.6,0,0,0,0,0,0,1004.4,1018.8
2024-01-15T00:16:00+09:00,2.5,��쐼,4.6,��,4.3,74.7,0,0,0,0,0,0,1004.3,1018.7
2024-01-15T00:17:00+09:00,2.4,��쐼,4.6,��,4.4,74.1,0,0,0,0,0,0,1004.3,1018.7
2024-01-15T00:18:00+09:00,2.5,��쐼,4.6,��,4.3,74.4,0,0,0,0,0,0,1004.3,1018.7
2024-01-15T00:19:00+09:00,2.4,��쐼,4.6,��,4.2,75.2,0,0,0,0,0,0,1004.3,1018.7
2024-01-15T00:20:00+09:00,2.2,��쐼,4.6,��,4.2,74.5,0,0,0,0,0,0,1004.3,1018.7
2024-01-15T00:21:00+09:00,2.1,��쐼,4.6,��,3.7,75.8,0,0,0,0,0,0,1004.3,1018.7
2024-01-15T00:22:00+09:00,1.8,��쐼,4.6,��,3.5,78.2,0,0,0,0,0,0,1004.3,1018.8
2024-01-15T00:23:00+09:00,1.8,��쐼,4.6,��,3.9,77.4,0,0,0,0,0,0,1004.3,1018.7
2024-01-15T00:24:00+09:00,1.8,��쐼,4.7,��쐼,4.2,75.6,0,0,0,0,0,0,1004.1,1018.5
2024-01-15T00:25:00+09:00,2,��쐼,5.8,��,4.4,74.1,0,0,0,0,0,0,1004.2,1018.6
2024-01-15T00:26:00+09:00,2.1,��쐼,5.8,��,4.4,74.2,0,0,0,0,0,0,1004.2,1018.6
2024-01-15T00:27:00+09:00,2.4,��쐼,7.8,��,4.5,73,0,0,0,0,0,0,1004.2,1018.6
2024-01-15T00:28:00+09:00,2.4,��쐼,7.8,��,4.5,72.7,0,0,0,0,0,0,1004.2,1018.6
2024-01-15T00:29:00+09:00,2.4,��쐼,7.8,��,4.5,72.9,0,0,0,0,0,0,1004.1,1018.5
2024-01-15T00:30:00+09:00,2.5,��쐼,7.8,��,4.5,72.4,0,0,0,0,0,0,1004,1018.4
2024-01-15T00:31:00+09:00,2.6,��쐼,7.8,��,4.5,72.1,0,0,0,0,0,0,1004,1018.4
2024-01-15T00:32:00+09:00,2.9,��쐼,7.8,��,4.5,71.8,0,0,0,0,0,0,1004,1018.4
2024-01-15T00:33:00+09:00,3,��쐼,7.8,��,4.5,72.2,0,0,0,0,0,0,1004,1018.4
2024-01-15T00:34:00+09:00,3.2,��쐼,7.9,��,4.4,72.1,0,0,0,0,0,0,1003.9,1018.3
2024-01-15T00:35:00+09:00,3.3,��쐼,7.9,��,4.4,72.6,0,0,0,0,0,0,1003.8,1018.2
2024-01-15T00:36:00+09:00,3.5,��쐼,7.9,��,4.4,72.1,0,0,0,0,0,0,1003.8,1018.2
2024-01-15T00:37:00+09:00,3.5,��쐼,7.9,��,4.3,72.4,0,0,0,0,0,0,1003.8,1018.2
2024-01-15T00:38:00+09:00,3.7,��쐼,7.9,��,4.2,73.2,0,0,0,0,0,0,1003.8,1018.2
2024-01-15T00:39:00+09:00,4,��쐼,7.9,��,4.2,73.7,0,0,0,0,0,0,1003.8,1018.2
2024-01-15T00:40:00+09:00,4.3,��쐼,7.9,��,4.1,74.2,0,0,0,0,0,0,1003.7,1018.1
2024-01-15T00:41:00+09:00,4.6,��쐼,7.9,��,4.1,73.9,0,0,0,0,0,0,1003.6,1018
2024-01-15T00:42:00+09:00,4.8,��,8.1,��,4.2,73.8,0,0,0,0,0,0,1003.6,1018
2024-01-15T00:43:00+09:00,5.1,��,8.1,��,4.2,73.6,0,0,0,0,0,0,1003.6,1018
2024-01-15T00:44:00+09:00,5.2,��,8.1,��,4.2,73.6,0,0,0,0,0,0,1003.6,1018
2024-01-15T00:45:00+09:00,5.2,��,8.1,��,4.2,73.6,0,0,0,0,0,0,1003.7,1018.1
2024-01-15T00:46:00+09:00,5.2,��,8.1,��,4,74.4,0,0,0,0,0,0,1003.6,1018
2024-01-15T00:47:00+09:00,5.2,��,8.1,��,3.9,74.6,0,0,0,0,0,0,1003.6,1018
2024-01-15T00:48:00+09:00,5.2,��,8.1,��,3.8,75.3,0,0,0,0,0,0,1003.5,1017.9
2024-01-15T00:49:00+09:00,5.1,��,8.1,��,3.8,75.6,0,0,0,0,0,0,1003.5,1017.9
2024-01-15T00:50:00+09:00,5.1,��,8.2,��,3.9,75.5,0,0,0,0,0,0,1003.5,1017.9
2024-01-15T00:51:00+09:00,5.2,��,8.2,��,3.9,75.7,0,0,0,0,0,0,1003.5,1017.9
2024-01-15T00:52:00+09:00,5.2,��,8.2,��,3.8,76.2,0,0,0,0,0,0,1003.5,1017.9
2024-01-15T00:53:00+09:00,5.1,��,8.2,��,3.9,76.3,0,0,0,0,0,0,1003.5,1017.9
2024-01-15T00:54:00+09:00,5.1,��,8.3,��,4,76,0,0,0,0,0,0,1003.5,1017.9
2024-01-15T00:55:00+09:00,5.2,��,8.3,��,3.9,75.9,0,0,0,0,0,0,1003.6,1018
2024-01-15T00:56:00+09:00,5.1,��,8.3,��,4,76.1,0,0,0,0,0,0,1003.6,1018
2024-01-15T00:57:00+09:00,5,��,8.3,��,3.9,76,0,0,0,0,0,0,1003.5,1017.9
2024-01-15T00:58:00+09:00,4.9,��,8.3,��,3.9,76.3,0,0,0,0,0,0,1003.5,1017.9
2024-01-15T00:59:00+09:00,4.9,��,8.3,��,3.8,76.7,0,0,0,0,0,0,1003.5,1017.9
2024-01-15T01:00:00+09:00,4.9,��,8.3,��,3.9,76.7,0,0,0,0,0,0,1003.5,1017.9
2024-01-15T01:01:00+09:00,4.8,��,8.3,��,3.9,77,0,0,0,0,0,0,1003.5,1017.9
2024-01-15T01:02:00+09:00,4.6,��,8.4,��,3.9,77.1,0,0,0,0,0,0,1003.5,1017.9
2024-01-15T01:03:00+09:00,4.6,��,8.4,��,4,76.7,0,0,0,0,0,0,1003.4,1017.8
2024-01-15T01:04:00+09:00,4.6,��,8.4,��,4.1,76.4,0,0,0,0,0,0,1003.3,1017.7
2024-01-15T01:05:00+09:00,4.7,��,8.4,��,4.2,75.9,0,0,0,0,0,0,1003.3,1017.7
2024-01-15T01:06:00+09:00,4.8,��,8.4,��,4.2,75.7,0,0,0,0,0,0,1003.3,1017.7
2024-01-15T01:07:00+09:00,5,��,9.6,��,4.2,75.5,0,0,0,0,0,0,1003.2,1017.6
2024-01-15T01:08:00+09:00,5.2,��,9.6,��,4.4,74.8,0,0,0,0,0,0,1003.2,1017.6
2024-01-15T01:09:00+09:00,5.3,��,9.6,��,4.4,74.3,0,0,0,0,0,0,1003.1,1017.5
2024-01-15T01:10:00+09:00,5.3,��,9.6,��,4.5,73.6,0,0,0,0,0,0,1003.2,1017.6
2024-01-15T01:11:00+09:00,5.4,��,9.6,��,4.5,73.6,0,0,0,0,0,0,1003.2,1017.6
2024-01-15T01:12:00+09:00,5.3,��,9.6,��,4.4,73.6,0,0,0,0,0,0,1003.1,1017.5
2024-01-15T01:13:00+09:00,5.4,��,9.6,��,4.4,73.6,0,0,0,0,0,0,1003.1,1017.5
2024-01-15T01:14:00+09:00,5.3,��,9.6,��,4.3,73.9,0,0,0,0,0,0,1003.1,1017.5
2024-01-15T01:15:00+09:00,5.2,��,9.6,��,4.4,73.8,0,0,0,0,0,0,1003.1,1017.5
2024-01-15T01:16:00+09:00,5.2,��,9.6,��,4.3,73.8,0,0,0,0,0,0,1003.1,1017.5
2024-01-15T01:17:00+09:00,5.2,��,8.9,��,4.2,74.1,0,0,0,0,0,0,1003.1,1017.5
2024-01-15T01:18:00+09:00,5.2,��,8.4,��,4.2,74.6,0,0,0,0,0,0,1003.2,1017.6
2024-01-15T01:19:00+09:00,5.2,��,8.4,��,4.1,75,0,0,0,0,0,0,1003.2,1017.6
2024-01-15T01:20:00+09:00,5.2,��,8,��,4.1,75.3,0,0,0,0,0,0,1003.1,1017.5
2024-01-15T01:21:00+09:00,5.3,��,8.4,��,4.1,75.3,0,0,0,0,0,0,1003.1,1017.5
2024-01-15T01:22:00+09:00,5.3,��,8.4,��,4.1,75.2,0,0,0,0,0,0,1003.1,1017.5
2024-01-15T01:23:00+09:00,5.2,��,8.4,��,3.9,75.9,0,0,0,0,0,0,1003,1017.4
2024-01-15T01:24:00+09:00,5.3,��,8.4,��,3.9,76.5,0,0,0,0,0,0,1003.1,1017.5
2024-01-15T01:25:00+09:00,5.3,��,8.4,��,4,76.7,0,0,0,0,0,0,1003.1,1017.5
2024-01-15T01:26:00+09:00,5.3,��,8.4,��,4,76.7,0,0,0,0,0,0,1003,1017.4
2024-01-15T01:27:00+09:00,5.3,��,8.4,��,4.2,76.1,0,0,0,0,0,0,1003.1,1017.5
2024-01-15T01:28:00+09:00,5.2,��,8.4,��,4.3,75.6,0,0,0,0,0,0,1003,1017.4
2024-01-15T01:29:00+09:00,5.3,��,8.6,��,4.5,74.8,0,0,0,0,0,0,1003,1017.4
2024-01-15T01:30:00+09:00,5.3,��,8.8,�쓌,4.4,74.6,0,0,0,0,0,0,1003,1017.4
2024-01-15T01:31:00+09:00,5.2,��,8.8,�쓌,4.4,74.4,0,0,0,0,0,0,1002.9,1017.3
2024-01-15T01:32:00+09:00,5.2,��,8.8,�쓌,4.4,74.4,0,0,0,0,0,0,1002.9,1017.3
2024-01-15T01:33:00+09:00,5.3,��,8.8,�쓌,4.4,74.5,0,0,0,0,0,0,1002.9,1017.3
2024-01-15T01:34:00+09:00,5.1,��,8.8,�쓌,4.4,74.5,0,0,0,0,0,0,1002.9,1017.3
2024-01-15T01:35:00+09:00,5,��,8.8,�쓌,4.4,74.4,0,0,0,0,0,0,1002.9,1017.3
2024-01-15T01:36:00+09:00,4.9,��,8.8,�쓌,4.4,74.4,0,0,0,0,0,0,1002.8,1017.2
2024-01-15T01:37:00+09:00,4.7,��,8.8,�쓌,4.3,74.5,0,0,0,0,0,0,1002.9,1017.3
2024-01-15T01:38:00+09:00,4.6,��,8.8,�쓌,4.4,74.7,0,0,0,0,0,0,1002.9,1017.3
2024-01-15T01:39:00+09:00,4.2,��,8.8,�쓌,4.4,74.5,0,0,0,0,0,0,1002.8,1017.2
2024-01-15T01:40:00+09:00,4.1,��,7.6,��,4.3,74.6,0,0,0,0,0,0,1002.9,1017.3
2024-01-15T01:41:00+09:00,3.9,��,7.2,��,4.3,74.8,0,0,0,0,0,0,1003,1017.4
2024-01-15T01:42:00+09:00,3.7,��,7.2,��,4.2,75.2,0,0,0,0,0,0,1003.1,1017.5
2024-01-15T01:43:00+09:00,3.5,��,7.2,��,4.2,75.5,0,0,0,0,0,0,1003,1017.4
2024-01-15T01:44:00+09:00,3.4,��,7.2,��,4.2,75.4,0,0,0,0,0,0,1002.9,1017.3
2024-01-15T01:45:00+09:00,3.4,��,7.2,��,4.3,75.1,0,0,0,0,0,0,1003,1017.4
2024-01-15T01:46:00+09:00,3.3,��,7.2,��,4.3,75.3,0,0,0,0,0,0,1003,1017.4
2024-01-15T01:47:00+09:00,3.1,��,7.2,��,4.2,75.4,0,0,0,0,0,0,1003.1,1017.5
2024-01-15T01:48:00+09:00,3,��,6.1,��,4.2,75.3,0,0,0,0,0,0,1003.1,1017.5
2024-01-15T01:49:00+09:00,2.9,��,6.1,��,4.2,75.6,0,0,0,0,0,0,1003.1,1017.5
2024-01-15T01:50:00+09:00,2.8,��,5.7,��,4.2,75.7,0,0,0,0,0,0,1003.1,1017.5
2024-01-15T01:51:00+09:00,2.7,��,5.7,��,4.2,75.8,0,0,0,0,0,0,1003.1,1017.5
2024-01-15T01:52:00+09:00,2.6,��,5.7,��,4.3,75.6,0,0,0,0,0,0,1003.2,1017.6
2024-01-15T01:53:00+09:00,2.5,��,5.5,��쓌,4.4,75.4,0,0,0,0,0,0,1003.1,1017.5
2024-01-15T01:54:00+09:00,2.5,��,5.5,��쓌,4.4,75,0,0,0,0,0,0,1003,1017.4
2024-01-15T01:55:00+09:00,2.4,��,5.5,��쓌,4.5,74.8,0,0,0,0,0,0,1002.9,1017.3
2024-01-15T01:56:00+09:00,2.2,��,5.5,��쓌,4.6,74.3,0,0,0,0,0,0,1002.9,1017.3
2024-01-15T01:57:00+09:00,2.1,��,5.6,��,4.6,74,0,0,0,0,0,0,1003,1017.4
2024-01-15T01:58:00+09:00,2.1,��,5.9,��,4.7,73.7,0,0,0,0,0,0,1003,1017.4
2024-01-15T01:59:00+09:00,2,��,5.9,��,4.7,73.5,0,0,0,0,0,0,1003,1017.4
2024-01-15T02:00:00+09:00,1.9,��,5.9,��,4.7,73.4,0,0,0,0,0,0,1002.9,1017.3
2024-01-15T02:01:00+09:00,2,��,6.4,��쓌,4.7,73,0,0,0,0,0,0,1002.8,1017.2
2024-01-15T02:02:00+09:00,2.2,��,6.5,��쓌,4.8,72.9,0,0,0,0,0,0,1002.8,1017.2
2024-01-15T02:03:00+09:00,2.2,��,6.5,��쓌,4.7,72.9,0,0,0,0,0,0,1002.9,1017.3
2024-01-15T02:04:00+09:00,2,��,6.5,��쓌,4.7,72.9,0,0,0,0,0,0,1002.9,1017.3
2024-01-15T02:05:00+09:00,2.1,��,6.5,��쓌,4.7,73.1,0,0,0,0,0,0,1002.9,1017.3
2024-01-15T02:06:00+09:00,2.1,��,6.5,��쓌,4.6,73.2,0,0,0,0,0,0,1002.8,1017.2
2024-01-15T02:07:00+09:00,2.2,��,6.5,��쓌,4.6,73.4,0,0,0,0,0,0,1002.8,1017.2
2024-01-15T02:08:00+09:00,2.3,��,6.5,��쓌,4.6,73.7,0,0,0,0,0,0,1002.9,1017.3
2024-01-15T02:09:00+09:00,2.3,��,6.5,��쓌,4.5,74,0,0,0,0,0,0,1002.8,1017.2
2024-01-15T02:10:00+09:00,2.4,��,6.5,��쓌,4.5,74.3,0,0,0,0,0,0,1002.8,1017.2
2024-01-15T02:11:00+09:00,2.3,��,6.5,��쓌,4.4,74.8,0,0,0,0,0,0,1002.7,1017.1
2024-01-15T02:12:00+09:00,2.3,��,6.5,��,4.4,75,0,0,0,0,0,0,1002.6,1017
2024-01-15T02:13:00+09:00,2.6,��,8.2,��쓌,4.5,74.8,0,0,0,0,0,0,1002.6,1017
2024-01-15T02:14:00+09:00,3.1,��,8.4,��,4.6,74.3,0,0,0,0,0,0,1002.6,1017
2024-01-15T02:15:00+09:00,3.4,��,8.4,��,4.7,74,0,0,0,0,0,0,1002.6,1017
2024-01-15T02:16:00+09:00,3.7,��,8.4,��,4.6,74,0,0,0,0,0,0,1002.6,1017
2024-01-15T02:17:00+09:00,4.2,��,8.9,��,4.7,73.7,0,0,0,0,0,0,1002.5,1016.9
2024-01-15T02:18:00+09:00,4.4,��,8.9,��,4.7,73.4,0,0,0,0,0,0,1002.5,1016.9
2024-01-15T02:19:00+09:00,4.5,��,8.9,��,4.6,73.8,0,0,0,0,0,0,1002.5,1016.9
2024-01-15T02:20:00+09:00,4.7,��,8.9,��,4.6,73.8,0,0,0,0,0,0,1002.5,1016.9
2024-01-15T02:21:00+09:00,4.9,��,8.9,��,4.6,74.1,0,0,0,0,0,0,1002.5,1016.9
2024-01-15T02:22:00+09:00,5,��,8.9,��,4.6,74.1,0,0,0,0,0,0,1002.5,1016.9
2024-01-15T02:23:00+09:00,4.8,��,8.9,��,4.5,74.2,0,0,0,0,0,0,1002.5,1016.9
2024-01-15T02:24:00+09:00,4.9,��,8.9,��,4.5,74.3,0,0,0,0,0,0,1002.5,1016.9
2024-01-15T02:25:00+09:00,4.8,��,8.9,��,4.6,73.9,0,0,0,0,0,0,1002.4,1016.8
2024-01-15T02:26:00+09:00,4.8,��,8.9,��,4.6,73.9,0,0,0,0,0,0,1002.5,1016.9
2024-01-15T02:27:00+09:00,4.6,��,8.3,��,4.6,74.1,0,0,0,0,0,0,1002.5,1016.9
2024-01-15T02:28:00+09:00,4.5,��,7.8,��,4.5,74.2,0,0,0,0,0,0,1002.4,1016.8
2024-01-15T02:29:00+09:00,4.5,��,7.8,��,4.5,74.4,0,0,0,0,0,0,1002.3,1016.7
2024-01-15T02:30:00+09:00,4.6,��,7.8,��,4.6,74.3,0,0,0,0,0,0,1002.3,1016.7
2024-01-15T02:31:00+09:00,4.7,��,7.8,��,4.7,74.1,0,0,0,0,0,0,1002.2,1016.6
2024-01-15T02:32:00+09:00,4.7,��,7.8,��,4.8,73.8,0,0,0,0,0,0,1002.2,1016.6
2024-01-15T02:33:00+09:00,4.9,��,8.2,��쐼,4.9,73,0,0,0,0,0,0,1002.1,1016.5
2024-01-15T02:34:00+09:00,4.9,��,8.2,��쐼,4.9,72.8,0,0,0,0,0,0,1002.2,1016.6
2024-01-15T02:35:00+09:00,4.8,��,8.2,��쐼,4.9,72.8,0,0,0,0,0,0,1002.2,1016.6
2024-01-15T02:36:00+09:00,4.7,��,8.2,��쐼,4.9,72.5,0,0,0,0,0,0,1002.2,1016.6
2024-01-15T02:37:00+09:00,4.7,��,8.2,��쐼,4.9,72.4,0,0,0,0,0,0,1002.3,1016.7
2024-01-15T02:38:00+09:00,4.7,��,8.2,��쐼,4.8,72.6,0,0,0,0,0,0,1002.3,1016.7
2024-01-15T02:39:00+09:00,4.7,��,8.2,��쐼,4.8,72.6,0,0,0,0,0,0,1002.4,1016.8
2024-01-15T02:40:00+09:00,4.7,��,8.2,��쐼,4.9,72.7,0,0,0,0,0,0,1002.4,1016.8
2024-01-15T02:41:00+09:00,4.5,��,8.2,��쐼,5,72.3,0,0,0,0,0,0,1002.4,1016.8
2024-01-15T02:42:00+09:00,4.2,��,8.2,��쐼,5.1,72,0,0,0,0,0,0,1002.4,1016.7
2024-01-15T02:43:00+09:00,3.7,��,7.3,��쐼,5.1,71.7,0,0,0,0,0,0,1002.6,1017
2024-01-15T02:44:00+09:00,3.3,��,7.3,��쐼,5.1,71.8,0,0,0,0,0,0,1002.7,1017.1
2024-01-15T02:45:00+09:00,3,��,7.3,��쐼,5,72.1,0,0,0,0,0,0,1002.7,1017.1
2024-01-15T02:46:00+09:00,2.6,��쓌,7.3,��쐼,4.8,72.8,0,0,0,0,0,0,1002.7,1017.1
2024-01-15T02:47:00+09:00,2.2,��쓌,7.3,��쐼,4.7,73.5,0,0,0,0,0,0,1002.6,1017
2024-01-15T02:48:00+09:00,1.9,���쓌,7.3,��쐼,4.6,74.1,0,0,0,0,0,0,1002.6,1017
2024-01-15T02:49:00+09:00,1.6,��,7.3,��쐼,4.5,74.9,0,0,0,0,0,0,1002.6,1017
2024-01-15T02:50:00+09:00,1.2,���k��,3.9,��,4.5,75.7,0,0,0,0,0,0,1002.6,1017
2024-01-15T02:51:00+09:00,1.1,���k��,3.3,��,4.5,75.8,0,0,0,0,0,0,1002.5,1016.9
2024-01-15T02:52:00+09:00,1,���k��,3.3,��,4.4,75.8,0,0,0,0,0,0,1002.5,1016.9
2024-01-15T02:53:00+09:00,0.9,���k��,2.5,���k��,4.4,76,0,0,0,0,0,0,1002.4,1016.8
2024-01-15T02:54:00+09:00,0.8,���k��,2.2,�k��,4.6,75.2,0,0,0,0,0,0,1002.3,1016.7
2024-01-15T02:55:00+09:00,0.7,��,2.2,�k��,4.6,75,0,0,0,0,0,0,1002.4,1016.8
2024-01-15T02:56:00+09:00,0.7,��,2.2,�k��,4.5,75.2,0,0,0,0,0,0,1002.4,1016.8
2024-01-15T02:57:00+09:00,0.6,���쓌,2.2,�k��,4.7,74.7,0,0,0,0,0,0,1002.4,1016.8
2024-01-15T02:58:00+09:00,0.5,�쓌,2.2,�k��,4.6,75,0,0,0,0,0,0,1002.4,1016.8
2024-01-15T02:59:00+09:00,0.5,��쓌,2.2,�k��,4.5,75.7,0,0,0,0,0,0,1002.4,1016.8
2024-01-15T03:00:00+09:00,0.4,��,1.5,��,4.5,76.1,0,0,0,0,0,0,1002.4,1016.8
2024-01-15T03:01:00+09:00,0.4,��,1.7,��,4.5,75.5,0,0,0,0,0,0,1002.4,1016.8
2024-01-15T03:02:00+09:00,0.4,��쐼,1.7,��,4.4,76.9,0,0,0,0,0,0,1002.4,1016.8
2024-01-15T03:03:00+09:00,0.4,��쐼,1.7,��,4.3,77,0,0,0,0,0,0,1002.4,1016.8
2024-01-15T03:04:00+09:00,0.4,�쐼,1.7,��,4.4,78,0,0,0,0,0,0,1002.4,1016.8
2024-01-15T03:05:00+09:00,0.4,�쐼,1.7,��,4.3,77.5,0,0,0,0,0,0,1002.4,1016.8
2024-01-15T03:06:00+09:00,0.5,��쐼,1.7,��,4.4,76.7,0,0,0,0,0,0,1002.4,1016.8
2024-01-15T03:07:00+09:00,0.5,��쐼,1.7,��,4.6,75.8,0,0,0,0,0,0,1002.4,1016.8
2024-01-15T03:08:00+09:00,0.5,��쐼,1.7,��,4.7,75.4,0,0,0,0,0,0,1002.3,1016.7
2024-01-15T03:09:00+09:00,0.6,��쐼,1.7,��,4.7,75.3,0,0,0,0,0,0,1002.4,1016.8
2024-01-15T03:10:00+09:00,0.6,��,1.7,��,4.7,75.2,0,0,0,0,0,0,1002.3,1016.7
2024-01-15T03:11:00+09:00,0.7,��,2.2,��쐼,4.9,74.8,0,0,0,0,0,0,1002.4,1016.8
2024-01-15T03:12:00+09:00,0.7,��,2.2,��쐼,5.1,74,0,0,0,0,0,0,1002.4,1016.7
2024-01-15T03:13:00+09:00,0.7,��쓌,2.2,��쐼,5,73.9,0,0,0,0,0,0,1002.4,1016.8
2024-01-15T03:14:00+09:00,0.7,��쓌,2.2,��쐼,5,74,0,0,0,0,0,0,1002.4,1016.8
2024-01-15T03:15:00+09:00,0.7,�쓌,2.2,��쐼,4.9,74,0,0,0,0,0,0,1002.4,1016.8
2024-01-15T03:16:00+09:00,0.7,�쓌,2.2,��쐼,5,74.4,0,0,0,0,0,0,1002.3,1016.7
2024-01-15T03:17:00+09:00,0.7,���쓌,2.2,��쐼,4.9,75.1,0,0,0,0,0,0,1002.3,1016.7
2024-01-15T03:18:00+09:00,0.7,���쓌,2.2,��쐼,4.8,75.6,0,0,0,0,0,0,1002.3,1016.7
2024-01-15T03:19:00+09:00,0.7,���쓌,2.2,��쐼,4.9,74.8,0,0,0,0,0,0,1002.3,1016.7
2024-01-15T03:20:00+09:00,0.7,���쓌,2.2,��쐼,4.9,74.1,0,0,0,0,0,0,1002.2,1016.6
2024-01-15T03:21:00+09:00,0.7,���쓌,1.9,��,4.9,73.7,0,0,0,0,0,0,1002.2,1016.6
2024-01-15T03:22:00+09:00,0.7,���쓌,1.9,��,4.9,74,0,0,0,0,0,0,1002.2,1016.6
2024-01-15T03:23:00+09:00,0.7,��,1.9,��,4.8,74.1,0,0,0,0,0,0,1002.2,1016.6
2024-01-15T03:24:00+09:00,0.8,���쓌,1.9,��,4.8,74.2,0,0,0,0,0,0,1002.2,1016.6
2024-01-15T03:25:00+09:00,0.8,���쓌,1.9,��,4.8,74.5,0,0,0,0,0,0,1002.2,1016.6
2024-01-15T03:26:00+09:00,0.7,�쓌,1.9,��,4.8,74.8,0,0,0,0,0,0,1002.3,1016.7
2024-01-15T03:27:00+09:00,0.7,�쓌,1.9,��,4.7,75.4,0,0,0,0,0,0,1002.3,1016.7
2024-01-15T03:28:00+09:00,0.8,��쓌,2.4,���k��,4.5,77,0,0,0,0,0,0,1002.3,1016.7
2024-01-15T03:29:00+09:00,0.9,��,3.3,��,4.2,78.3,0,0,0,0,0,0,1002.3,1016.7
2024-01-15T03:30:00+09:00,1.1,��쐼,3.3,��,4,79.3,0,0,0,0,0,0,1002.3,1016.7
2024-01-15T03:31:00+09:00,1.1,�쐼,3.3,��,3.8,80.4,0,0,0,0,0,0,1002.3,1016.7
2024-01-15T03:32:00+09:00,1.3,���쐼,3.3,��,3.8,81.7,0,0,0,0,0,0,1002.3,1016.7
2024-01-15T03:33:00+09:00,1.5,���쐼,3.3,��,3.8,82.1,0,0,0,0,0,0,1002.3,1016.7
2024-01-15T03:34:00+09:00,1.7,��,3.3,��,3.7,82.6,0,0,0,0,0,0,1002.2,1016.6
2024-01-15T03:35:00+09:00,1.8,��,3.3,��,3.8,83,0,0,0,0,0,0,1002.2,1016.6
2024-01-15T03:36:00+09:00,1.9,��,3.3,��,3.8,82.7,0,0,0,0,0,0,1002.1,1016.5
2024-01-15T03:37:00+09:00,2,��,3.3,��,3.8,82.6,0,0,0,0,0,0,1002.1,1016.5
2024-01-15T03:38:00+09:00,2.1,��,3.3,��,3.8,82.9,0,0,0,0,0,0,1002.1,1016.5
2024-01-15T03:39:00+09:00,2.1,��,3.3,��,3.9,82.5,0,0,0,0,0,0,1002.1,1016.5
2024-01-15T03:40:00+09:00,2.1,��,3.5,��,3.8,82.6,0,0,0,0,0,0,1002,1016.4
2024-01-15T03:41:00+09:00,2.2,��,3.7,��,3.9,82.9,0,0,0,0,0,0,1002,1016.4
2024-01-15T03:42:00+09:00,2.2,��,3.7,��,3.8,83.1,0,0,0,0,0,0,1002.1,1016.5
2024-01-15T03:43:00+09:00,2.2,��,3.7,��,3.8,83.3,0,0,0,0,0,0,1002.1,1016.5
2024-01-15T03:44:00+09:00,2.2,��,3.7,��,3.7,83.6,0,0,0,0,0,0,1002.1,1016.5
2024-01-15T03:45:00+09:00,2.3,��,3.7,��,3.7,84,0,0,0,0,0,0,1002.1,1016.5
2024-01-15T03:46:00+09:00,2.4,��,3.7,��,3.7,84.2,0,0,0,0,0,0,1002.1,1016.5
2024-01-15T03:47:00+09:00,2.6,��,4.1,��,3.7,84.3,0,0,0,0,0,0,1002.1,1016.5
2024-01-15T03:48:00+09:00,2.7,��,4.1,��,3.7,84.4,0,0,0,0,0,0,1002.1,1016.5
2024-01-15T03:49:00+09:00,2.7,��,4.1,��,3.8,84.2,0,0,0,0,0,0,1002.1,1016.5
2024-01-15T03:50:00+09:00,2.9,��,4.3,��,3.8,84.1,0,0,0,0,0,0,1002.1,1016.5
2024-01-15T03:51:00+09:00,2.9,��,4.3,��,3.7,84.2,0,0,0,0,0,0,1002,1016.4
2024-01-15T03:52:00+09:00,2.9,��,4.3,��,3.5,85,0,0,0,0,0,0,1002,1016.4
2024-01-15T03:53:00+09:00,2.9,��,4.3,��,3.4,85.7,0,0,0,0,0,0,1002,1016.4
2024-01-15T03:54:00+09:00,3,��,4.3,��,3.5,85.8,0,0,0,0,0,0,1002,1016.4
2024-01-15T03:55:00+09:00,3,��,4.3,��,3.6,85.6,0,0,0,0,0,0,1002,1016.4
2024-01-15T03:56:00+09:00,3.1,��,4.3,��,3.6,85.3,0,0,0,0,0,0,1002,1016.4
2024-01-15T03:57:00+09:00,3,��,4.3,��,3.5,85.7,0,0,0,0,0,0,1002,1016.4
2024-01-15T03:58:00+09:00,3,��,4.3,��,3.5,86.3,0,0,0,0,0,0,1002,1016.4
2024-01-15T03:59:00+09:00,3.1,��,4.3,��,3.4,86.8,0,0,0,0,0,0,1002,1016.4
2024-01-15T04:00:00+09:00,2.9,��,4.1,��,3.4,87.3,0,0,0,0,0,0,1002.1,1016.5
2024-01-15T04:01:00+09:00,2.9,��,4.1,��,3.5,87.7,0,0,0,0,0,0,1002.2,1016.6
2024-01-15T04:02:00+09:00,2.9,��,4.1,��,3.5,87.8,0,0,0,0,0,0,1002.1,1016.5
2024-01-15T04:03:00+09:00,2.8,��,4.1,��,3.6,87.7,0,0,0,0,0,0,1002.2,1016.6
2024-01-15T04:04:00+09:00,2.7,��,4.1,��,3.5,87.4,0,0,0,0,0,0,1002.2,1016.6
2024-01-15T04:05:00+09:00,2.6,��,4.1,��,3.5,87.5,0,0,0,0,0,0,1002.2,1016.6
2024-01-15T04:06:00+09:00,2.5,��,4.1,��,3.5,87.6,0,0,0,0,0,0,1002.1,1016.5
2024-01-15T04:07:00+09:00,2.3,��,4.1,��,3.5,87.8,0,0,0,0,0,0,1002.1,1016.5
2024-01-15T04:08:00+09:00,2.2,���k��,3.3,��,3.6,87.9,0,0,0,0,0,0,1002.1,1016.5
2024-01-15T04:09:00+09:00,2.1,���k��,3,��,3.7,88,0,0,0,0,0,0,1002.1,1016.5
2024-01-15T04:10:00+09:00,2,���k��,3,��,3.7,87.6,0,0,0,0,0,0,1002.1,1016.5
2024-01-15T04:11:00+09:00,1.9,���k��,3,��,3.8,87.7,0,0,0,0,0,0,1002,1016.4
2024-01-15T04:12:00+09:00,1.8,���k��,3,��,3.7,87.3,0,0,0,0,0,0,1002.1,1016.5
2024-01-15T04:13:00+09:00,1.7,���k��,2.4,���k��,3.6,87.4,0,0,0,0,0,0,1002,1016.4
2024-01-15T04:14:00+09:00,1.5,���k��,2.3,��,3.6,87.5,0,0,0,0,0,0,1002,1016.4
2024-01-15T04:15:00+09:00,1.4,���k��,2.3,��,3.7,88.1,0,0,0,0,0,0,1002,1016.4
2024-01-15T04:16:00+09:00,1.4,���k��,2.3,��,3.7,87.8,0,0,0,0,0,0,1002.1,1016.5
2024-01-15T04:17:00+09:00,1.2,�k��,2.3,��,3.7,88,0,0,0,0,0,0,1002.1,1016.5
2024-01-15T04:18:00+09:00,1.1,�k��,2.3,��,3.7,87.9,0,0,0,0,0,0,1002.1,1016.5
2024-01-15T04:19:00+09:00,1,�k�k��,2.3,��,3.7,88.4,0,0,0,0,0,0,1002.1,1016.5
2024-01-15T04:20:00+09:00,1,�k�k��,2.3,��,3.6,88.2,0,0,0,0,0,0,1002.1,1016.5
2024-01-15T04:21:00+09:00,0.9,�k,1.8,���k��,3.7,88.4,0,0,0,0,0,0,1002.2,1016.6
2024-01-15T04:22:00+09:00,0.8,�k�k��,1.7,�k�k��,3.7,88.4,0,0,0,0,0,0,1002.2,1016.6
2024-01-15T04:23:00+09:00,0.8,�k�k��,1.7,�k�k��,3.7,88.6,0,0,0,0,0,0,1002.3,1016.7
2024-01-15T04:24:00+09:00,0.8,�k�k��,1.7,�k�k��,3.7,88.1,0,0,0,0,0,0,1002.3,1016.7
2024-01-15T04:25:00+09:00,0.7,�k�k��,1.7,�k�k��,3.7,88.2,0,0,0,0,0,0,1002.3,1016.7
2024-01-15T04:26:00+09:00,0.7,�k�k��,1.7,�k�k��,3.8,87.8,0,0,0,0,0,0,1002.3,1016.7
2024-01-15T04:27:00+09:00,0.6,�k,1.7,�k�k��,3.8,87.7,0,0,0,0,0,0,1002.3,1016.7
2024-01-15T04:28:00+09:00,0.6,�k,1.7,�k�k��,3.8,87.3,0,0,0,0,0,0,1002.3,1016.7
2024-01-15T04:29:00+09:00,0.6,�k,1.7,�k�k��,3.8,87.8,0,0,0,0,0,0,1002.4,1016.8
2024-01-15T04:30:00+09:00,0.6,�k�k��,1.9,���k��,3.9,87.9,0,0,0,0,0,0,1002.4,1016.8
2024-01-15T04:31:00+09:00,0.7,�k�k��,1.9,���k��,3.9,87.9,0,0,0,0,0,0,1002.4,1016.8
2024-01-15T04:32:00+09:00,0.7,�k��,1.9,���k��,3.9,87.7,0,0,0,0,0,0,1002.4,1016.8
2024-01-15T04:33:00+09:00,0.8,�k��,1.9,���k��,3.7,87.2,0,0,0,0,0,0,1002.4,1016.8
2024-01-15T04:34:00+09:00,0.9,�k��,1.9,���k��,3.8,87.7,0,0,0,0,0,0,1002.5,1016.9
2024-01-15T04:35:00+09:00,0.9,�k��,1.9,���k��,3.9,88.2,0,0,0,0,0,0,1002.5,1016.9
2024-01-15T04:36:00+09:00,1,�k��,1.9,���k��,3.7,88.2,0,0,0,0,0,0,1002.5,1016.9
2024-01-15T04:37:00+09:00,1,�k��,1.9,���k��,3.7,88.7,0,0,0,0,0,0,1002.5,1016.9
2024-01-15T04:38:00+09:00,1,�k��,1.9,���k��,3.8,89,0,0,0,0,0,0,1002.5,1016.9
2024-01-15T04:39:00+09:00,1,�k��,1.9,���k��,3.7,89.3,0,0,0,0,0,0,1002.5,1016.9
2024-01-15T04:40:00+09:00,0.9,�k��,1.7,���k��,3.6,89.5,0,0,0,0,0,0,1002.5,1016.9
2024-01-15T04:41:00+09:00,0.8,�k��,1.5,�k��,3.7,90,0,0,0,0,0,0,1002.6,1017
2024-01-15T04:42:00+09:00,0.7,�k��,1.5,�k��,3.7,90.4,0,0,0,0,0,0,1002.5,1016.9
2024-01-15T04:43:00+09:00,0.6,�k�k��,1.4,���k��,3.7,90.5,0,0,0,0,0,0,1002.5,1016.9
2024-01-15T04:44:00+09:00,0.5,�k�k��,1.2,���k��,3.9,90.6,0,0,0,0,0,0,1002.5,1016.9
2024-01-15T04:45:00+09:00,0.5,�k,1.7,�k��,3.8,90.4,0,0,0,0,0,0,1002.6,1017
2024-01-15T04:46:00+09:00,0.6,�k,2,���k��,3.8,90.4,0,0,0,0,0,0,1002.6,1017
2024-01-15T04:47:00+09:00,0.7,�k�k��,2.9,�k��,3.7,90.2,0,0,0,0,0,0,1002.6,1017
2024-01-15T04:48:00+09:00,0.9,�k�k��,3,�k�k��,3.8,90.6,0,0,0,0,0,0,1002.6,1017
2024-01-15T04:49:00+09:00,1,�k��,3,�k�k��,4,90.9,0,0,0,0,0,0,1002.6,1017
2024-01-15T04:50:00+09:00,1.2,�k��,3,�k�k��,3.8,90.2,0,0,0,0,0,0,1002.7,1017.1
2024-01-15T04:51:00+09:00,1.4,�k��,3,�k�k��,3.8,90.1,0,0,0,0,0,0,1002.8,1017.2
2024-01-15T04:52:00+09:00,1.4,�k��,3,�k�k��,3.8,90.6,0,0,0,0,0,0,1002.9,1017.3
2024-01-15T04:53:00+09:00,1.5,�k�k��,3,�k�k��,3.9,91.5,0,0,0,0,0,0,1002.9,1017.3
2024-01-15T04:54:00+09:00,1.5,�k�k��,3,�k�k��,3.9,91.4,0,0,0,0,0,0,1002.9,1017.3
2024-01-15T04:55:00+09:00,1.5,�k�k��,3,�k�k��,4.1,92,0,0,0,0,0,0,1002.9,1017.3
2024-01-15T04:56:00+09:00,1.4,�k,3,�k�k��,3.8,91.6,0,0,0,0,0,0,1002.9,1017.3
2024-01-15T04:57:00+09:00,1.3,�k,3,�k�k��,3.7,91.3,0,0,0,0,0,0,1003,1017.4
2024-01-15T04:58:00+09:00,1.1,�k�k��,2.9,�k��,3.6,91.4,0,0,0,0,0,0,1003,1017.4
2024-01-15T04:59:00+09:00,0.9,�k��,2.7,�k�k��,3.6,91.3,0,0,0,0,0,0,1003,1017.4
2024-01-15T05:00:00+09:00,0.7,�k��,2.7,�k�k��,3.6,91.7,0,0,0,0,0,0,1003,1017.4
2024-01-15T05:01:00+09:00,0.6,���k��,1.9,�k��,3.6,92.2,0,0,0,0,0,0,1003.1,1017.5
2024-01-15T05:02:00+09:00,0.5,��,1.4,�k�k��,3.6,91.7,0,0,0,0,0,0,1003.1,1017.5
2024-01-15T05:03:00+09:00,0.4,��,1.3,�k,3.8,92.6,0,0,0,0,0,0,1003.2,1017.6
2024-01-15T05:04:00+09:00,0.4,���k��,1.2,��,3.9,93.4,0,0,0,0,0,0,1003.2,1017.6
2024-01-15T05:05:00+09:00,0.4,���k��,1.2,��,3.8,93.5,0,0,0,0,0,0,1003.2,1017.6
2024-01-15T05:06:00+09:00,0.4,�k��,1.2,��,3.9,93.3,0,0,0,0,0,0,1003.2,1017.6
2024-01-15T05:07:00+09:00,0.3,�k�k��,1,��,3.7,93.1,0,0,0,0,0,0,1003.2,1017.6
2024-01-15T05:08:00+09:00,0.4,�k�k��,2,���k��,3.7,92.7,0,0,0,0,0,0,1003.3,1017.7
2024-01-15T05:09:00+09:00,0.6,�k�k��,2,���k��,3.6,92.8,0,0,0,0,0,0,1003.3,1017.7
2024-01-15T05:10:00+09:00,0.7,�k�k��,2,���k��,3.6,93,0,0,0,0,0,0,1003.3,1017.7
2024-01-15T05:11:00+09:00,0.7,�k�k��,2,���k��,3.6,93.3,0,0,0,0,0,0,1003.3,1017.7
2024-01-15T05:12:00+09:00,0.8,�k,2.2,�k��,3.5,93.2,0,0,0,0,0,0,1003.2,1017.6
2024-01-15T05:13:00+09:00,0.9,�k,3.1,�k�k��,3.7,93.7,0,0,0,0,0,0,1003.2,1017.6